Change the Weather History Date:

Thursday, May 29, 2014

  Actual Average Record
Temperature  
Mean Temperature 83 °F -  
Max Temperature 93 °F 88 °F 98 °F (2004)
Min Temperature 73 °F 65 °F 54 °F (1988)
Cooling Degree Days 18    
Growing Degree Days 33 (Base 50)    
Moisture  
Dew Point 71 °F    
Average Humidity 72    
Maximum Humidity 93    
Minimum Humidity 44    
Precipitation  
Precipitation 0.03 in - - ()
Sea Level Pressure  
Sea Level Pressure 30.01 in    
Wind  
Wind Speed 7 mph (SE)    
Max Wind Speed 16 mph    
Max Gust Speed 21 mph    
Visibility 10 miles    
Events Rain , Thunderstorm    
Averages and records for this station are not official NWS values.
T = Trace of Precipitation, MM = Missing Value Source: NWS Daily Summary

Daily Weather History Graph

Daily Weather History Graph

Search for Another Location

Airport or City:

Trip Planner

Search our weather history database for the weather conditions in past years. The results will help you decide how hot, cold, wet, or windy it might be!

Date:

Astronomy

May. 29, 2014 Rise Set
Actual Time 6:27 AM EDT 8:17 PM EDT
Civil Twilight 6:01 AM EDT 8:43 PM EDT
Nautical Twilight 5:29 AM EDT 9:15 PM EDT
Astronomical Twilight 4:55 AM EDT 9:49 PM EDT
Moon 7:16 AM EDT (5/29) 9:10 PM EDT (5/29)
Length of Visible Light 14h 42m
Length of Day
13h 49m
New Moon, 1% of the Moon is Illuminated
May 29
New Moon
Jun 5
First Quarter
Jun 13
Full
Jun 19
Last Quarter
Jun 27
New

Hourly Weather History & Observations

Time (EDT) Temp. Heat Index Dew Point Humidity Pressure Visibility Wind Dir Wind Speed Gust Speed Precip Events Conditions
12:53 AM 75.9 °F - 72.0 °F 87% 30.04 in 10.0 mi SE 5.8 mph - N/A   Clear
2:53 AM 73.9 °F - 72.0 °F 93% 30.01 in 10.0 mi SE 4.6 mph - N/A   Clear
4:53 AM 73.9 °F - 71.1 °F 91% 30.00 in 10.0 mi SSE 4.6 mph - N/A   Clear
5:53 AM 73.0 °F - 71.1 °F 93% 30.01 in 10.0 mi SSE 3.5 mph - N/A   Clear
6:53 AM 73.0 °F - 71.1 °F 93% 30.02 in 10.0 mi ESE 3.5 mph - N/A   Clear
7:53 AM 75.9 °F - 73.0 °F 91% 30.04 in 10.0 mi South 5.8 mph - N/A   Clear
8:53 AM 78.1 °F - 73.0 °F 84% 30.05 in 10.0 mi South 4.6 mph - N/A   Clear
9:53 AM 82.9 °F 88.0 °F 72.0 °F 69% 30.05 in 10.0 mi South 8.1 mph - N/A   Scattered Clouds
10:53 AM 84.9 °F 89.4 °F 70.0 °F 61% 30.06 in 10.0 mi South 6.9 mph - N/A   Clear
11:53 AM 87.1 °F 90.6 °F 68.0 °F 53% 30.06 in 10.0 mi SSW 6.9 mph - N/A   Partly Cloudy
12:53 PM 90.0 °F 92.8 °F 66.9 °F 46% 30.04 in 10.0 mi SSW 9.2 mph - N/A   Clear
1:53 PM 91.0 °F 93.8 °F 66.0 °F 44% 30.01 in 10.0 mi North - - N/A   Partly Cloudy
2:53 PM 93.0 °F 97.9 °F 69.1 °F 45% 29.99 in 10.0 mi East 16.1 mph 20.7 mph N/A   Scattered Clouds
3:03 PM 91.0 °F 96.6 °F 70.0 °F 50% 29.99 in 10.0 mi ENE 12.7 mph - N/A Thunderstorm Thunderstorm
3:53 PM 93.0 °F 97.9 °F 69.1 °F 45% 29.98 in 10.0 mi East 16.1 mph - N/A Thunderstorm Mostly Cloudy
4:05 PM 90.0 °F 93.6 °F 68.0 °F 48% 29.98 in 10.0 mi East 15.0 mph - N/A   Mostly Cloudy
4:13 PM 88.0 °F 91.4 °F 68.0 °F 51% 29.97 in 10.0 mi ESE 12.7 mph - N/A Thunderstorm Thunderstorm
4:28 PM 84.0 °F 91.2 °F 73.9 °F 72% 29.97 in 10.0 mi East 13.8 mph - 0.00 in Rain , Thunderstorm Light Rain
4:35 PM 82.9 °F 88.8 °F 73.0 °F 72% 29.98 in 10.0 mi ENE 10.4 mph - 0.00 in Rain , Thunderstorm Light Thunderstorms and Rain
4:53 PM 84.0 °F 90.2 °F 73.0 °F 69% 29.97 in 10.0 mi East 10.4 mph - 0.00 in Thunderstorm Overcast
6:04 PM 75.0 °F - 72.0 °F 90% 30.00 in 10.0 mi NW 3.5 mph - 0.00 in Rain Light Rain
6:53 PM 79.0 °F - 73.0 °F 82% 29.98 in 10.0 mi ESE 8.1 mph - 0.02 in Rain Light Rain
7:53 PM 80.1 °F 83.8 °F 72.0 °F 76% 30.02 in 10.0 mi SE 8.1 mph - 0.01 in   Scattered Clouds
8:53 PM 79.0 °F - 72.0 °F 79% 30.04 in 10.0 mi South 5.8 mph - N/A   Clear
9:53 PM 75.0 °F - 71.1 °F 87% 30.04 in 10.0 mi WNW 8.1 mph - N/A   Scattered Clouds
10:53 PM 73.0 °F - 70.0 °F 90% 30.05 in 10.0 mi NNW 3.5 mph - N/A   Clear
11:53 PM 73.0 °F - 69.1 °F 87% 30.04 in 10.0 mi Calm Calm - N/A   Clear